When you browse on this site, cookies collect data to enhance your experience and personalize the content and advertising you see.
Visit our Privacy Policy to learn more. By continuing to use the site, you agree to this use of cookies and data.
  • In Deutschland
  • Länderverzeichnis
  • Für 7 Tage
  • Wassertemperatur
  • Wetterkarte
  • Widgets
  • user-avatar
    Anmelden

    Stündliche Wetter Malanwille

    Heute, 18 November, Montag

    Zeit Temperatur Niederschläge Wind Luftdruck Luftfeuchtigkeit
    00:00 +28°C° 0 mm 1 m/S 741 mmHg 25%
    01:00 +28°C° 0 mm 1 m/S 741 mmHg 26%
    02:00 +27°C° 0 mm 1 m/S 741 mmHg 27%
    03:00 +27°C° 0 mm 1 m/S 740 mmHg 28%
    04:00 +27°C° 0 mm 1 m/S 741 mmHg 29%
    05:00 +27°C° 0 mm 1 m/S 741 mmHg 29%
    06:00 +26°C° 0 mm 1 m/S 742 mmHg 30%
    07:00 +29°C° 0 mm 1 m/S 742 mmHg 27%
    08:00 +32°C° 0 mm 1 m/S 743 mmHg 23%
    09:00 +35°C° 0 mm 1 m/S 743 mmHg 20%
    10:00 +36°C° 0 mm 1 m/S 742 mmHg 18%
    11:00 +39°C° 0 mm 2 m/S 742 mmHg 16%
    12:00 +40°C° 0 mm 2 m/S 741 mmHg 14%
    13:00 +40°C° 0 mm 2 m/S 741 mmHg 14%
    14:00 +41°C° 0 mm 2 m/S 740 mmHg 13%
    15:00 +41°C° 0 mm 2 m/S 739 mmHg 13%
    16:00 +39°C° 0 mm 2 m/S 740 mmHg 15%
    17:00 +36°C° 0 mm 2 m/S 740 mmHg 17%
    18:00 +34°C° 0 mm 2 m/S 740 mmHg 19%
    19:00 +32°C° 0 mm 2 m/S 741 mmHg 20%
    20:00 +31°C° 0 mm 1 m/S 741 mmHg 21%
    21:00 +30°C° 0 mm 1 m/S 742 mmHg 22%
    22:00 +30°C° 0 mm 1 m/S 742 mmHg 23%
    23:00 +29°C° 0 mm 1 m/S 742 mmHg 24%

    Morgen, 19 November, Dienstag

    Zeit Temperatur Niederschläge Wind Luftdruck Luftfeuchtigkeit
    00:00 +26°C° 0 mm 0 m/S 742 mmHg 25%
    01:00 +28°C° 0 mm 1 m/S 741 mmHg 25%
    02:00 +27°C° 0 mm 1 m/S 741 mmHg 25%
    03:00 +27°C° 0 mm 1 m/S 741 mmHg 26%
    04:00 +26°C° 0 mm 1 m/S 741 mmHg 27%
    05:00 +26°C° 0 mm 1 m/S 742 mmHg 29%
    06:00 +25°C° 0 mm 1 m/S 742 mmHg 31%
    07:00 +28°C° 0 mm 1 m/S 742 mmHg 26%
    08:00 +31°C° 0 mm 1 m/S 743 mmHg 22%
    09:00 +34°C° 0 mm 1 m/S 743 mmHg 17%
    10:00 +36°C° 0 mm 1 m/S 743 mmHg 16%
    11:00 +37°C° 0 mm 1 m/S 742 mmHg 15%
    12:00 +40°C° 0 mm 1 m/S 742 mmHg 13%
    13:00 +40°C° 0 mm 1 m/S 741 mmHg 13%
    14:00 +40°C° 0 mm 1 m/S 740 mmHg 13%
    15:00 +41°C° 0 mm 2 m/S 740 mmHg 13%
    16:00 +37°C° 0 mm 1 m/S 740 mmHg 16%
    17:00 +34°C° 0 mm 1 m/S 740 mmHg 19%
    18:00 +32°C° 0 mm 1 m/S 740 mmHg 21%
    19:00 +31°C° 0 mm 1 m/S 741 mmHg 22%
    20:00 +31°C° 0 mm 1 m/S 741 mmHg 22%
    21:00 +30°C° 0 mm 1 m/S 742 mmHg 23%
    22:00 +30°C° 0 mm 1 m/S 741 mmHg 24%
    23:00 +29°C° 0 mm 1 m/S 741 mmHg 25%

    übermorgen, 20 November, Mittwoch

    Zeit Temperatur Niederschläge Wind Luftdruck Luftfeuchtigkeit
    00:00 +29°C° 0 mm 1 m/S 741 mmHg 26%
    01:00 +28°C° 0 mm 1 m/S 741 mmHg 26%
    02:00 +28°C° 0 mm 1 m/S 741 mmHg 27%
    03:00 +27°C° 0 mm 1 m/S 741 mmHg 27%
    04:00 +27°C° 0 mm 1 m/S 741 mmHg 29%
    05:00 +26°C° 0 mm 1 m/S 742 mmHg 31%
    06:00 +26°C° 0 mm 1 m/S 742 mmHg 32%
    07:00 +28°C° 0 mm 1 m/S 743 mmHg 28%
    08:00 +31°C° 0 mm 1 m/S 743 mmHg 24%
    09:00 +34°C° 0 mm 1 m/S 744 mmHg 20%
    10:00 +35°C° 0 mm 1 m/S 743 mmHg 18%
    11:00 +37°C° 0 mm 1 m/S 742 mmHg 15%
    12:00 +40°C° 0 mm 1 m/S 742 mmHg 13%
    13:00 +40°C° 0 mm 2 m/S 741 mmHg 13%
    14:00 +41°C° 0 mm 2 m/S 741 mmHg 12%
    15:00 +41°C° 0 mm 2 m/S 740 mmHg 12%
    16:00 +38°C° 0 mm 2 m/S 740 mmHg 14%
    17:00 +36°C° 0 mm 2 m/S 740 mmHg 16%
    18:00 +32°C° 0 mm 1 m/S 741 mmHg 18%
    19:00 +32°C° 0 mm 1 m/S 741 mmHg 19%
    20:00 +31°C° 0 mm 1 m/S 742 mmHg 19%
    21:00 +30°C° 0 mm 1 m/S 742 mmHg 20%
    22:00 +30°C° 0 mm 1 m/S 742 mmHg 20%
    23:00 +29°C° 0 mm 1 m/S 742 mmHg 20%

    21 November, Donnerstag

    Zeit Temperatur Niederschläge Wind Luftdruck Luftfeuchtigkeit
    00:00 +29°C° 0 mm 1 m/S 742 mmHg 20%
    01:00 +29°C° 0 mm 2 m/S 741 mmHg 20%
    02:00 +28°C° 0 mm 2 m/S 741 mmHg 20%
    03:00 +28°C° 0 mm 2 m/S 741 mmHg 20%
    04:00 +27°C° 0 mm 2 m/S 741 mmHg 21%
    05:00 +27°C° 0 mm 2 m/S 741 mmHg 22%
    06:00 +26°C° 0 mm 2 m/S 741 mmHg 23%
    07:00 +29°C° 0 mm 2 m/S 742 mmHg 21%
    08:00 +32°C° 0 mm 2 m/S 742 mmHg 19%
    09:00 +36°C° 0 mm 3 m/S 743 mmHg 17%
    10:00 +38°C° 0 mm 3 m/S 742 mmHg 15%
    11:00 +39°C° 0 mm 3 m/S 741 mmHg 14%
    12:00 +42°C° 0 mm 3 m/S 741 mmHg 13%
    13:00 +42°C° 0 mm 3 m/S 740 mmHg 13%
    14:00 +42°C° 0 mm 3 m/S 740 mmHg 13%
    15:00 +43°C° 0 mm 3 m/S 739 mmHg 12%
    16:00 +39°C° 0 mm 2 m/S 739 mmHg 15%
    17:00 +37°C° 0 mm 2 m/S 740 mmHg 17%
    18:00 +34°C° 0 mm 2 m/S 740 mmHg 20%
    19:00 +34°C° 0 mm 2 m/S 740 mmHg 20%
    20:00 +32°C° 0 mm 1 m/S 741 mmHg 21%
    21:00 +32°C° 0 mm 1 m/S 742 mmHg 21%
    22:00 +31°C° 0 mm 1 m/S 741 mmHg 22%
    23:00 +30°C° 0 mm 1 m/S 741 mmHg 24%

    22 November, Freitag

    Zeit Temperatur Niederschläge Wind Luftdruck Luftfeuchtigkeit
    00:00 +29°C° 0 mm 1 m/S 741 mmHg 25%
    01:00 +29°C° 0 mm 1 m/S 741 mmHg 26%
    02:00 +28°C° 0 mm 1 m/S 741 mmHg 27%
    03:00 +27°C° 0 mm 1 m/S 741 mmHg 28%
    04:00 +27°C° 0 mm 1 m/S 741 mmHg 29%
    05:00 +27°C° 0 mm 2 m/S 741 mmHg 30%
    06:00 +26°C° 0 mm 2 m/S 742 mmHg 32%
    07:00 +29°C° 0 mm 2 m/S 742 mmHg 31%
    08:00 +32°C° 0 mm 2 m/S 743 mmHg 30%
    09:00 +35°C° 0 mm 2 m/S 743 mmHg 29%
    10:00 +37°C° 0 mm 2 m/S 742 mmHg 25%
    11:00 +39°C° 0 mm 2 m/S 742 mmHg 21%
    12:00 +41°C° 0 mm 1 m/S 741 mmHg 17%
    13:00 +41°C° 0 mm 1 m/S 741 mmHg 16%
    14:00 +41°C° 0 mm 1 m/S 740 mmHg 15%
    15:00 +41°C° 0 mm 1 m/S 739 mmHg 14%
    16:00 +39°C° 0 mm 2 m/S 740 mmHg 17%
    17:00 +37°C° 0 mm 2 m/S 740 mmHg 19%
    18:00 +35°C° 0 mm 2 m/S 740 mmHg 22%
    19:00 +34°C° 0 mm 2 m/S 741 mmHg 24%
    20:00 +32°C° 0 mm 2 m/S 741 mmHg 27%
    21:00 +31°C° 0 mm 2 m/S 742 mmHg 30%
    22:00 +31°C° 0 mm 2 m/S 742 mmHg 32%
    23:00 +30°C° 0 mm 2 m/S 742 mmHg 33%

    23 November, Samstag

    Zeit Temperatur Niederschläge Wind Luftdruck Luftfeuchtigkeit
    00:00 +29°C° 0 mm 2 m/S 742 mmHg 34%
    01:00 +29°C° 0 mm 2 m/S 742 mmHg 35%
    02:00 +29°C° 0 mm 2 m/S 741 mmHg 37%
    03:00 +29°C° 0 mm 3 m/S 741 mmHg 38%
    04:00 +28°C° 0 mm 3 m/S 742 mmHg 45%
    05:00 +28°C° 0 mm 3 m/S 742 mmHg 51%
    06:00 +27°C° 0 mm 3 m/S 742 mmHg 58%
    07:00 +29°C° 0 mm 2 m/S 743 mmHg 56%
    08:00 +31°C° 0 mm 2 m/S 743 mmHg 53%
    09:00 +34°C° 0 mm 2 m/S 743 mmHg 50%
    10:00 +35°C° 0 mm 1 m/S 743 mmHg 42%
    11:00 +37°C° 0 mm 1 m/S 742 mmHg 34%
    12:00 +38°C° 0 mm 0 m/S 742 mmHg 26%
    13:00 +41°C° 0 mm 1 m/S 741 mmHg 24%
    14:00 +41°C° 0 mm 2 m/S 741 mmHg 22%
    15:00 +42°C° 0 mm 3 m/S 740 mmHg 20%
    16:00 +39°C° 0 mm 3 m/S 740 mmHg 22%
    17:00 +37°C° 0 mm 3 m/S 740 mmHg 25%
    18:00 +35°C° 0 mm 3 m/S 741 mmHg 28%
    19:00 +35°C° 0 mm 3 m/S 741 mmHg 29%
    20:00 +34°C° 0 mm 3 m/S 742 mmHg 29%
    21:00 +34°C° 0 mm 2 m/S 742 mmHg 30%
    22:00 +32°C° 0 mm 2 m/S 742 mmHg 31%
    23:00 +31°C° 0 mm 2 m/S 742 mmHg 32%
    Mehr zeigen